This is the latest recevied weather packets stored in our database for station/object W7TTE. If no packets are shown the sender has not sent any weather packets the latest 1 day(s).
| Time | Temp. | Humidity | Pressure | Rain* | Wind** | Luminosity | Snow |
|---|---|---|---|---|---|---|---|
| 1778074376 | 13.33° C | 46% | 1017.8 hPa | 0 mm | - | 30 W/m² | - |
| 1778073770 | 12.78° C | 47% | 1017.7 hPa | 0 mm | - | 26 W/m² | - |
| 1778073468 | 12.78° C | 48% | 1017.7 hPa | 0 mm | - | 25 W/m² | - |
| 1778072557 | 12.78° C | 48% | 1017.4 hPa | 0 mm | - | 17 W/m² | - |
| 1778071046 | 12.22° C | 47% | 1017.1 hPa | 0 mm | - | 3 W/m² | - |
| 1778070441 | 12.22° C | 47% | 1017.1 hPa | 0 mm | - | 1 W/m² | - |
| 1778068626 | 12.78° C | 47% | 1016.5 hPa | 0 mm | - | 0 W/m² | - |
| 1778067417 | 12.78° C | 45% | 1016.7 hPa | 0 mm | - | 0 W/m² | - |
| 1778067114 | 12.78° C | 45% | 1016.8 hPa | 0 mm | - | 0 W/m² | - |
| 1778066205 | 13.89° C | 47% | 1016.8 hPa | 0 mm | - | 0 W/m² | - |
| 1778065297 | 13.89° C | 46% | 1016.6 hPa | 0 mm | - | 0 W/m² | - |
| 1778064389 | 15° C | 45% | 1016.5 hPa | 0 mm | - | 0 W/m² | - |
| 1778064086 | 15° C | 44% | 1016.7 hPa | 0 mm | - | 0 W/m² | - |
| 1778063783 | 15° C | 46% | 1016.6 hPa | 0 mm | - | 0 W/m² | - |
| 1778063480 | 15° C | 45% | 1016.5 hPa | 0 mm | - | 0 W/m² | - |
| 1778063178 | 15.56° C | 44% | 1016.5 hPa | 0 mm | - | 0 W/m² | - |
| 1778062875 | 15.56° C | 43% | 1016.2 hPa | 0 mm | - | 0 W/m² | - |
| 1778062572 | 15.56° C | 43% | 1016.3 hPa | 0 mm | - | 0 W/m² | - |
| 1778060455 | 15.56° C | 43% | 1016.1 hPa | 0 mm | - | 0 W/m² | - |
| 1778060153 | 15.56° C | 44% | 1016.1 hPa | 0 mm | - | 0 W/m² | - |
| 1778059850 | 15.56° C | 44% | 1016.1 hPa | 0 mm | - | 0 W/m² | - |
| 1778059548 | 15.56° C | 44% | 1016.2 hPa | 0 mm | - | 0 W/m² | - |
| 1778058943 | 16.11° C | 43% | 1016.1 hPa | 0 mm | - | 0 W/m² | - |
| 1778058337 | 15.56° C | 43% | 1015.9 hPa | 0 mm | - | 0 W/m² | - |
| 1778057427 | 16.11° C | 42% | 1015.9 hPa | 0 mm | - | 0 W/m² | - |
* Rain latest hour (hover to see other rain measurements)
** Current wind speed in m/s (hover to see current wind gust speed)